Regional Weather Roundup
Issued by NWS

Home | Current Version | Previous Version | Graphics & Text | Print | Product List | Glossary On
Versions: 1 2 3 4 5 6 7 8 9 10 11 12 13 14 15 16 17 18 19 20 21 22 23 24 25 26 27 28
000
ASUS43 KDMX 211407
RWRIA

WEATHER ROUNDUP FOR IOWA
NATIONAL WEATHER SERVICE DES MOINES IA
900 AM CDT TUE OCT 21 2014

NOTE: "FAIR" INDICATES FEW OR NO CLOUDS BELOW 12,000 FEET WITH NO
SIGNIFICANT WEATHER AND/OR OBSTRUCTIONS TO VISIBILITY.

* - THESE STATIONS ARE NOT NWS STATIONS...THUS NOT UNDER NWS
QUALITY CONTROL.  THEY ALSO DO NOT REPORT WEATHER SUCH
AS PRECIPITATION OR FOG.

IAZ001>003-012>014-020>022-031>034-043>046-211500-
   NORTHWEST IOWA

CITY           SKY/WX    TMP DP  RH WIND       PRES   REMARKS
CARROLL *      SUNNY     39  39 100 CALM      30.14R
CHEROKEE *     SUNNY     39  37  93 CALM      30.13R
DENISON *      SUNNY     41  41 100 CALM      30.11S
LE MARS *      SUNNY     41  37  87 CALM      30.11S
ORANGE CITY *  SUNNY     46  39  76 SE3       30.11S
SHELDON *      SUNNY     43  39  87 CALM      30.10S
SIOUX CITY     SUNNY     43  39  86 SE3       30.11S
SPENCER        SUNNY     39  36  89 CALM      30.14R
STORM LAKE *   SUNNY     46  41  81 VRB6      30.14R
$$

IAZ055>058-069>071-079>083-090>094-211500-
   SOUTHWEST IOWA

CITY           SKY/WX    TMP DP  RH WIND       PRES   REMARKS
ATLANTIC *     SUNNY     41  39  93 CALM      30.14R
AUDUBON *      SUNNY     39  36  87 CALM      30.14R
CLARINDA *     SUNNY     41  41 100 CALM      30.16R
COUNCIL BLFS * SUNNY     50  45  81 SE3       30.11R
CRESTON *      SUNNY     48  43  81 CALM      30.14R
HARLAN  *      SUNNY     41  41 100 CALM      30.17R
LAMONI         SUNNY     50  42  74 CALM      30.13R
RED OAK *      SUNNY     43  41  93 CALM      30.14R
SHENANDOAH *   SUNNY     41  41 100 CALM      30.14S
$$

IAZ047>049-059>061-072>074-084-211500-
   CENTRAL IOWA

CITY           SKY/WX    TMP DP  RH WIND       PRES   REMARKS
AMES           SUNNY     44  39  82 CALM      30.16R
ANKENY *       SUNNY     45  41  87 CALM      30.16R
CHARITON *     SUNNY     46  43  87 E6        30.14R
DES MOINES     SUNNY     48  41  76 E5        30.15R
GRINNELL*      SUNNY     45  41  87 E7        30.17R
KNOXVILLE *    SUNNY     46  41  81 VRB7      30.14R
MARSHALLTOWN   SUNNY     44  40  85 E8        30.17R
PELLA *        SUNNY     50  43  76 E5        30.16R
PERRY *          N/A     45  41  87 CALM      30.15R
$$

IAZ004>006-015-016-023>025-035-036-211500-
   NORTH CENTRAL IOWA

CITY           SKY/WX    TMP DP  RH WIND       PRES   REMARKS
ALGONA *       SUNNY     45  41  87 SE5       30.16R
CLARION *      SUNNY     45  43  93 E8        30.15S
ESTHERVILLE    SUNNY     39  37  92 E5        30.14R FOG
FORT DODGE *   SUNNY     39  37  93 CALM      30.16R
MASON CITY     SUNNY     41  39  93 E6        30.19R
FOREST CITY *  SUNNY     43  41  93 E6        30.17R
IOWA FALLS *     N/A     43  39  87 E3        30.18R
$$

IAZ007>011-017>019-026>030-037>042-050>054-066-211500-
   NORTHEAST IOWA

CITY           SKY/WX    TMP DP  RH WIND       PRES   REMARKS
CEDAR RAPIDS   SUNNY     46  41  82 NE5       30.18R
CHARLES CITY * SUNNY     43  39  87 E6        30.19R
CLINTON *      SUNNY     43  39  87 N5        30.21R
DECORAH *      SUNNY     43  41  93 E3        30.19R
DUBUQUE        SUNNY     46  41  82 N5        30.19R
MONTICELLO *   SUNNY     41  41 100 CALM      30.19R
OELWEIN *      SUNNY     41  39  93 NE5       30.19R
WATERLOO       SUNNY     41  37  86 CALM      30.18R
$$

IAZ064-065-067-068-078-211500-
   EAST CENTRAL IOWA

CITY           SKY/WX    TMP DP  RH WIND       PRES   REMARKS
DAVENPORT      SUNNY     47  40  76 NE8       30.18R
IOWA CITY      SUNNY     48  42  80 NE6       30.20R
MT. PLEASANT * SUNNY     45  45 100 NE3       30.17S
MUSCATINE *    SUNNY     46  43  87 NE5       30.19R
QUAD CITIES    SUNNY     47  42  83 CALM      30.18R
$$

IAZ062-063-075>077-085>089-095>099-211500-
   SOUTHEAST IOWA

CITY           SKY/WX    TMP DP  RH WIND       PRES   REMARKS
BURLINGTON     SUNNY     49  44  83 NE5       30.16R
FAIRFIELD *    SUNNY     46  43  87 E5        30.17R
FORT MADISON * SUNNY     48  45  87 NE5       30.17R
KEOKUK *       SUNNY     50  45  81 E3        30.15R
OSKALOOSA *      N/A     46  43  87 E8        30.17R
CENTERVILLE *    N/A     48  46  93 E3        30.16R
OTTUMWA        SUNNY     45  41  86 E9        30.16R
WASHINGTON *   SUNNY     46  45  93 NE6       30.18R
$$

ABBREVIATIONS USED IN REMARKS
   TC - TEMPERATURES IN CELSIUS
  WCI - WIND CHILL INDEX
   HX - HEAT INDEX
  VSB - VISIBILITY
$$



USA.gov is the U.S. government's official web portal to all federal, state and local government web resources and services.